Header for Extended Forecast Station List Page

Search by: ID | Name | Date | Parm | Value | Avg | % Avg
Sort by: ID | Name | Date | Parm | Value | Avg | % Avg

Enter search or view all records.

Click on id for station plot
#IDNameDateParmValueAvg% Avg
0LYDM8KOOTENAI-LIBBY DAM06-27-2016INFLOW (KAF)1495284253
1LEOI1KOOTENAI-AT LEONIA06-27-2016DISCHARGE (KAF)1779288762
2BFEI1KOOTENAI-AT BONNERS FERRY06-27-2016STAGE (FT)MMM
3FCFM8NF FLATHEAD-NEAR COLUMBIA FALLS06-27-2016DISCHARGE (KAF)34853166
4WGCM8MF FLATHEAD-NEAR WEST GLACIER06-27-2016DISCHARGE (KAF)29947263
5HHWM8SF FLATHEAD-HUNGRY HORSE DAM06-27-2016INFLOW (KAF)25445556
6CFMM8FLATHEAD-AT COLUMBIA FALLS06-27-2016DISCHARGE (KAF)1243169973
7DLGM8CLARK FORK-AT DEER LODGE06-27-2016DISCHARGE (KAF)224351
8DRMM8CLARK FORK-NR DRUMMOND06-27-2016DISCHARGE (KAF)65MM
9RCCM8ROCK CREEK-NEAR CLINTON06-27-2016DISCHARGE (KAF)5710156
10BONM8BLACKFOOT-NEAR BONNER06-27-2016DISCHARGE (KAF)13126350
11ABOM8CLARK FORK-ABOVE MISSOULA06-27-2016DISCHARGE (KAF)26351751
12BITM8BITTERROOT-NEAR MISSOULA06-27-2016DISCHARGE (KAF)21137057
13BELM8CLARK FORK-BELOW MISSOULA06-27-2016DISCHARGE (KAF)47390253
14STRM8ST. REGIS-NEAR ST. REGIS06-27-2016DISCHARGE (KAF)304468
15SRGM8CLARK FORK-AT ST REGIS06-27-2016DISCHARGE (KAF)629117254
16KERM8FLATHEAD-KERR DAM06-27-2016INFLOW (KAF)1338204965
17NOXM8CLARK FORK-NOXON RAPIDS DAM06-27-2016INFLOW (KAF)2338380561
18CABI1CLARK FORK-CABINET GORGE DAM06-27-2016INFLOW (KAF)2580407463
19PRTI1PRIEST-NEAR PRIEST RIVER06-27-2016DISCHARGE (KAF)10917164
20ALFW1PEND OREILLE-ALBENI FALLS DAM06-27-2016INFLOW (KAF)2680435762
21HOPI1PEND OREILLE-PEND OREILLE LAKE NR HOPE06-27-2016LAKE ELEVATION (FT)MMM
22COEI1COEUR D ALENE-COEUR D ALENE LAKE06-27-2016INFLOW (KAF)19328668
23SPOW1SPOKANE-AT SPOKANE06-27-2016DISCHARGE (KAF)355MM
24LLKW1SPOKANE-AT LONGLAKE06-27-2016INFLOW (KAF)50663380
25SATI1ST MARIES-NEAR SANTA06-27-2016DISCHARGE (KAF)142167
26SJMI1ST JOE-AT ST MARIES06-27-2016STAGE (FT)MMM
27CIBW1COLUMBIA-AT INTL BOUNDARY06-27-2016DISCHARGE (KAF)20610MM
28LAUW1KETTLE-AT LAURIER06-27-2016DISCHARGE (KAF)18730461
29GCDW1COLUMBIA-GRAND COULEE DAM06-27-2016INFLOW (KAF)213372676780
30CHJW1COLUMBIA-CHIEF JOSEPH DAM06-27-2016INFLOW (KAF)203232331687
31TONW1OKANOGAN-NEAR TONASKET06-27-2016DISCHARGE (KAF)27345960
32PATW1METHOW-NEAR PATEROS06-27-2016DISCHARGE (KAF)14023560
33WELW1COLUMBIA-WELLS DAM06-27-2016INFLOW (KAF)207522412086
34CHDW1CHELAN-LAKE CHELAN DAM06-27-2016INFLOW (KAF)15340038
35RRHW1COLUMBIA-ROCKY REACH DAM06-27-2016INFLOW (KAF)210032473785
36ARDW1ENTIAT-NEAR ARDENVOIR06-27-2016DISCHARGE (KAF)376359
37PESW1WENATCHEE-AT PESHASTIN06-27-2016DISCHARGE (KAF)26347855
38WANW1COLUMBIA-WANAPUM DAM06-27-2016INFLOW (KAF)212802731278
39PRWW1COLUMBIA-PRIEST RAPIDS DAM06-27-2016INFLOW (KAF)212872777977
40KEDW1YAKIMA-KEECHELUS LAKE06-27-2016INFLOW (KAF)182769
41KADW1KACHESS-KACHESS DAM06-27-2016INFLOW (KAF)91949
42EASW1YAKIMA-AT EASTON06-27-2016DISCHARGE (KAF)9976131
43CLUW1CLE ELUM-CLE ELUM LAKE06-27-2016INFLOW (KAF)3910836
44TNAW1TEANAWAY-BELOW FORKS06-27-2016DISCHARGE (KAF)61061
45UMTW1YAKIMA-AT UMTANUM06-27-2016DISCHARGE (KAF)63764898
46BUDW1BUMPING-BUMPING LAKE DAM06-27-2016INFLOW (KAF)153246
47CLFW1NACHES-NEAR CLIFFDEL06-27-2016DISCHARGE (KAF)7011362
48RILW1TIETON-RIMROCK LAKE NEAR RIMROCK06-27-2016INFLOW (KAF)798890
49NACW1NACHES-NEAR NACHES06-27-2016DISCHARGE (KAF)16517893
50PARW1YAKIMA-NEAR PARKER06-27-2016DISCHARGE (KAF)206114181
51KIOW1YAKIMA-AT KIONA06-27-2016DISCHARGE (KAF)518430120
52IPDI1HENRYS FORK-ISLAND PARK DAM06-27-2016INFLOW (KAF)10815470
53CHEI1FALL RIVER-NEAR CHESTER06-27-2016DISCHARGE (KAF)438849
54ANTI1HENRYS FORK-AT ST. ANTHONY06-27-2016DISCHARGE (KAF)23031872
55TEAI1TETON-NEAR ST. ANTHONY06-27-2016DISCHARGE (KAF)15820478
56REXI1HENRYS FORK-AT REXBURG06-27-2016DISCHARGE (KAF)24237065
57JLKW4SNAKE-JACKSON LAKE AT DAM06-27-2016INFLOW (KAF)13528248
58JKSW4SNAKE-NEAR JACKSON06-27-2016DISCHARGE (KAF)882107982
59ALPW4SNAKE-NEAR ALPINE06-27-2016DISCHARGE (KAF)1029131178
60PLDI1SF SNAKE-PALISADES DAM06-27-2016INFLOW (KAF)1337176276
61HEII1SNAKE-NEAR HEISE06-27-2016DISCHARGE (KAF)21242124100
62RIDI1WILLOW CREEK-RIRIE DAM06-27-2016INFLOW (KAF)3651
63SIFI1SNAKE-AB EAGLE ROCK NR IDAHO FALLS06-27-2016DISCHARGE (KAF)1285141091
64SHYI1SNAKE-NEAR SHELLEY06-27-2016DISCHARGE (KAF)11351111102
65SNAI1SNAKE-AT BLACKFOOT06-27-2016DISCHARGE (KAF)62864997
66BFTI1SNAKE-NEAR BLACKFOOT06-27-2016DISCHARGE (KAF)614597103
67PIHI1PORTNEUF-AT POCATELLO06-27-2016DISCHARGE (KAF)122353
68AFRI1SNAKE-AMERICAN FALLS RESERVOIR06-27-2016INFLOW (KAF)1142124692
69MILI1SNAKE-AT MILNER06-27-2016DISCHARGE (KAF)9995104
70HOTI1BRUNEAU-NEAR HOT SPRINGS06-27-2016DISCHARGE (KAF)313199
71SWAI1SNAKE-BELOW SWAN FALLS06-27-2016DISCHARGE (KAF)1650195385
72HWRI1BIG LOST-AT HOWELL RANCH NEAR CHILLY06-27-2016DISCHARGE (KAF)467067
73MACI1BIG LOST-MACKAY RESERVOIR NEAR MACKAY06-27-2016INFLOW (KAF)5857102
74HALI1BIG WOOD-AT HAILEY06-27-2016DISCHARGE (KAF)679174
75MAGI1BIG WOOD-MAGIC DAM06-27-2016INFLOW (KAF)284859
76LWRI1LITTLE WOOD-LITTLE WOOD DAM06-27-2016INFLOW (KAF)121960
77OWYO3OWYHEE-OWYHEE DAM06-27-2016INFLOW (KAF)6053114
78ARAI1SF BOISE-ANDERSON RANCH DAM06-27-2016INFLOW (KAF)7311166
79LUCI1BOISE-LUCKY PEAK DAM06-27-2016INFLOW (KAF)520MM
80BIGI1BOISE-AT GLENWOOD BRIDGE06-27-2016DISCHARGE (KAF)257202127
81PARI1BOISE-NEAR PARMA06-27-2016DISCHARGE (KAF)272223122
82WRMO3MALHEUR-WARM SPRINGS DAM06-27-2016INFLOW (KAF)32110
83BERO3MALHEUR-AGENCY VALLEY DAM06-27-2016INFLOW (KAF)77101
84BULO3BULLY CREEK-BULLY CREEK DAM06-27-2016INFLOW (KAF)M0M
85VALO3MALHEUR-NEAR VALE06-27-2016DISCHARGE (KAF)102936
86CSDI1NF PAYETTE-CASCADE DAM06-27-2016INFLOW (KAF)677885
87DEDI1DEADWOOD-NEAR LOWMAN06-27-2016INFLOW (KAF)173253
88EMMI1PAYETTE-NEAR EMMETT06-27-2016DISCHARGE (KAF)36246778
89WSRI1WEISER-NEAR WEISER06-27-2016DISCHARGE (KAF)506182
90WEII1SNAKE-AT WEISER06-27-2016DISCHARGE (KAF)2604291989
91BRNI1SNAKE-BROWNLEE DAM06-27-2016INFLOW (KAF)2755298692
92WHBI1SALMON-AT WHITEBIRD06-27-2016DISCHARGE (KAF)1345185772
93TRYO3GRANDE RONDE-TROY06-27-2016DISCHARGE (KAF)21028175
94ANAW1SNAKE-NEAR ANATONE06-27-2016DISCHARGE (KAF)4578532486
95ORFI1CLEARWATER-AT OROFINO06-27-2016DISCHARGE (KAF)45883755
96DWRI1NF CLEARWATER-DWORSHAK DAM06-27-2016INFLOW (KAF)29350758
97SPDI1CLEARWATER-AT SPALDING06-27-2016DISCHARGE (KAF)20701497138
98LGDW1SNAKE-LOWER GRANITE DAM06-27-2016INFLOW (KAF)6648689996
99LGSW1SNAKE-LITTLE GOOSE DAM06-27-2016INFLOW (KAF)6618692996
100LMNW1SNAKE-LOWER MONUMENTAL DAM06-27-2016INFLOW (KAF)6594695295
101IHDW1SNAKE-ICE HARBOR DAM06-27-2016INFLOW (KAF)6582687596
102TCHW1WALLA WALLA-NEAR TOUCHET06-27-2016DISCHARGE (KAF)3836
103MCDW1COLUMBIA-MCNARY DAM06-27-2016INFLOW (KAF)285493562780
104GIBO3UMATILLA-NEAR GIBBON06-27-2016DISCHARGE (KAF)121294
105PDTO3UMATILLA-AT PENDLETON06-27-2016DISCHARGE (KAF)81361
106MYKO3MCKAY CREEK-NEAR PILOT ROCK06-27-2016DISCHARGE (KAF)0011
107UMAO3UMATILLA-NEAR UMATILLA06-27-2016DISCHARGE (KAF)265564
108MONO3NF JOHN DAY-AT MONUMENT06-27-2016DISCHARGE (KAF)245246
109SERO3JOHN DAY-AT SERVICE CK06-27-2016DISCHARGE (KAF)277736
110JDAO3COLUMBIA-JOHN DAY DAM06-27-2016INFLOW (KAF)288603612480
111MODO3DESCHUTES-AT MOODY NR BIGGS06-27-2016DISCHARGE (KAF)1049108597
112TDAO3COLUMBIA-THE DALLES DAM06-27-2016INFLOW (KAF)293273462085
113PITW1KLICKITAT-NEAR PITT06-27-2016DISCHARGE (KAF)20921299
114HODO3HOOD-NEAR TUCKER BRIDGE06-27-2016DISCHARGE (KAF)859392
115UNDW1WHITE SALMON-NEAR UNDERWOOD06-27-2016DISCHARGE (KAF)175170103
116BONO3COLUMBIA-BONNEVILLE DAM06-27-2016INFLOW (KAF)29806MM